Location: Buchloe
(48.0161°N, 10.7316°E)
Time: 06:11:54
(UTC+01:00)

ISS - Pass Details

Date: 03 December 2021
Orbit: 413 x 423 km, 51.6° (Epoch: 18 January)

Event Time Altitude Azimuth Distance (km) Brightness Sun altitude
Rises 18:38:34 0° 292° (WNW) 2,382 1.0 -21.5°
Reaches altitude 10° 18:40:42 10° 290° (WNW) 1,512 -0.1 -21.8°
Enters shadow 18:43:42 58° 247° (WSW) 495 -3.2 -22.3°
